| time (UTC) | temp C | wind direction | speed KPH | gust KPH | rain 1hr cm | rain 24hr cm | rain mn cm | humidity % | barometer mb |
| 20260505080304 | 31 | 1 | 3.2 | 6.4 | 0.00 | 0.00 | 0.00 | 52 | 1012.0 |
| 20260505075806 | 31 | 214 | 3.2 | 4.8 | 0.00 | 0.00 | 0.00 | 53 | 1013.0 |
| 20260505075304 | 31 | 90 | 1.6 | 4.8 | 0.00 | 0.00 | 0.00 | 53 | 1013.0 |
| 20260505074803 | 32 | 299 | 3.2 | 6.4 | 0.00 | 0.00 | 0.00 | 51 | 1013.0 |
| 20260505074301 | 31 | 147 | 1.6 | 1.6 | 0.00 | 0.00 | 0.00 | 52 | 1013.0 |
| 20260505073804 | 31 | 198 | 4.8 | 8.0 | 0.00 | 0.00 | 0.00 | 53 | 1013.0 |
| 20260505073305 | 31 | 332 | 3.2 | 4.8 | 0.00 | 0.00 | 0.00 | 53 | 1013.0 |
| 20260505072804 | 31 | 268 | 1.6 | 6.4 | 0.00 | 0.00 | 0.00 | 54 | 1013.0 |
| 20260505072305 | 31 | 23 | 4.8 | 8.0 | 0.00 | 0.00 | 0.00 | 55 | 1013.0 |
| 20260505071802 | 31 | 307 | 3.2 | 6.4 | 0.00 | 0.00 | 0.00 | 55 | 1013.0 |
| 20260505071302 | 31 | 291 | 3.2 | 4.8 | 0.00 | 0.00 | 0.00 | 55 | 1013.0 |
| 20260505070804 | 31 | 333 | 3.2 | 6.4 | 0.00 | 0.00 | 0.00 | 56 | 1013.0 |
| 20260505070303 | 30 | 263 | 1.6 | 3.2 | 0.00 | 0.00 | 0.00 | 58 | 1014.0 |
| 20260505065803 | 30 | 294 | 4.8 | 8.0 | 0.00 | 0.00 | 0.00 | 57 | 1014.0 |
| 20260505065303 | 30 | 286 | 0.0 | 3.2 | 0.00 | 0.00 | 0.00 | 58 | 1014.0 |
| 20260505064804 | 31 | 294 | 3.2 | 8.0 | 0.00 | 0.00 | 0.00 | 56 | 1014.0 |
| 20260505064301 | 30 | 317 | 3.2 | 4.8 | 0.00 | 0.00 | 0.00 | 58 | 1014.0 |
| 20260505063802 | 30 | 47 | 1.6 | 3.2 | 0.00 | 0.00 | 0.00 | 60 | 1014.0 |
| 20260505063302 | 30 | 283 | 3.2 | 6.4 | 0.00 | 0.00 | 0.00 | 60 | 1014.0 |
| 20260505062804 | 30 | 300 | 4.8 | 6.4 | 0.00 | 0.00 | 0.00 | 58 | 1014.0 |
| 20260505062304 | 30 | 282 | 3.2 | 4.8 | 0.00 | 0.00 | 0.00 | 61 | 1014.0 |
| 20260505061805 | 30 | 301 | 3.2 | 6.4 | 0.00 | 0.00 | 0.00 | 61 | 1014.0 |
| 20260505061303 | 30 | 323 | 1.6 | 3.2 | 0.00 | 0.00 | 0.00 | 61 | 1014.0 |
| 20260505060803 | 30 | 153 | 3.2 | 4.8 | 0.00 | 0.00 | 0.00 | 60 | 1014.0 |
| 20260505060302 | 30 | 119 | 1.6 | 3.2 | 0.00 | 0.00 | 0.00 | 62 | 1014.0 |
| 20260505055801 | 30 | 302 | 4.8 | 9.7 | 0.00 | 0.00 | 0.00 | 62 | 1014.0 |
| 20260505055304 | 30 | 197 | 4.8 | 6.4 | 0.00 | 0.00 | 0.00 | 61 | 1014.0 |
| 20260505054802 | 30 | 195 | 3.2 | 4.8 | 0.00 | 0.00 | 0.00 | 62 | 1014.0 |
| 20260505054302 | 29 | 213 | 0.0 | 1.6 | 0.00 | 0.00 | 0.00 | 62 | 1014.0 |
| 20260505053801 | 30 | 225 | 3.2 | 8.0 | 0.00 | 0.00 | 0.00 | 62 | 1014.0 |
| 20260505053303 | 29 | 205 | 3.2 | 4.8 | 0.00 | 0.00 | 0.00 | 61 | 1014.0 |
| 20260505052802 | 29 | 138 | 1.6 | 3.2 | 0.00 | 0.00 | 0.00 | 62 | 1014.0 |
| 20260505052304 | 29 | 210 | 3.2 | 4.8 | 0.00 | 0.00 | 0.00 | 64 | 1014.0 |
| 20260505051804 | 29 | 295 | 3.2 | 8.0 | 0.00 | 0.00 | 0.00 | 63 | 1015.0 |
| 20260505051302 | 28 | 35 | 1.6 | 3.2 | 0.00 | 0.00 | 0.00 | 64 | 1014.0 |
| 20260505050802 | 28 | 302 | 3.2 | 4.8 | 0.00 | 0.00 | 0.00 | 66 | 1015.0 |
| 20260505050303 | 28 | 326 | 3.2 | 4.8 | 0.00 | 0.00 | 0.00 | 67 | 1015.0 |
| 20260505041303 | 27 | 298 | 1.6 | 4.8 | 0.00 | 0.00 | 0.00 | 70 | 1015.0 |
| 20260505040802 | 27 | 289 | 3.2 | 6.4 | 0.00 | 0.00 | 0.00 | 70 | 1015.0 |
| 20260505040302 | 27 | 301 | 4.8 | 6.4 | 0.00 | 0.00 | 0.00 | 70 | 1015.0 |
| 20260505035802 | 27 | 220 | 4.8 | 6.4 | 0.00 | 0.00 | 0.00 | 71 | 1015.0 |
| 20260505035301 | 26 | 297 | 3.2 | 6.4 | 0.00 | 0.00 | 0.00 | 71 | 1015.0 |
| 20260505034803 | 26 | 356 | 1.6 | 4.8 | 0.00 | 0.00 | 0.00 | 75 | 1015.0 |
| 20260505034302 | 26 | 311 | 3.2 | 6.4 | 0.00 | 0.00 | 0.00 | 73 | 1015.0 |
| 20260505033801 | 26 | 263 | 3.2 | 8.0 | 0.00 | 0.00 | 0.00 | 73 | 1015.0 |
| 20260505033302 | 26 | 293 | 3.2 | 6.4 | 0.00 | 0.00 | 0.00 | 74 | 1015.0 |
| 20260505032803 | 26 | 293 | 4.8 | 6.4 | 0.00 | 0.00 | 0.00 | 74 | 1015.0 |
| 20260505032304 | 26 | 311 | 4.8 | 8.0 | 0.00 | 0.00 | 0.00 | 74 | 1015.0 |
| 20260505031802 | 26 | 275 | 3.2 | 4.8 | 0.00 | 0.00 | 0.00 | 74 | 1015.0 |
| 20260505031301 | 26 | 268 | 1.6 | 3.2 | 0.00 | 0.00 | 0.00 | 74 | 1015.0 |
| 20260505030801 | 26 | 301 | 1.6 | 4.8 | 0.00 | 0.00 | 0.00 | 76 | 1015.0 |
| 20260505030302 | 26 | 305 | 1.6 | 4.8 | 0.00 | 0.00 | 0.00 | 75 | 1015.0 |
| 20260505025801 | 26 | 177 | 1.6 | 3.2 | 0.00 | 0.00 | 0.00 | 74 | 1015.0 |
| 20260505025304 | 26 | 215 | 3.2 | 6.4 | 0.00 | 0.00 | 0.00 | 75 | 1015.0 |
| 20260505024802 | 26 | 279 | 3.2 | 6.4 | 0.00 | 0.00 | 0.00 | 74 | 1015.0 |
| 20260505024301 | 26 | 76 | 1.6 | 3.2 | 0.00 | 0.00 | 0.00 | 74 | 1015.0 |
| 20260505023802 | 25 | 260 | 3.2 | 8.0 | 0.00 | 0.00 | 0.00 | 74 | 1015.0 |
| 20260505023302 | 25 | 106 | 0.0 | 1.6 | 0.00 | 0.00 | 0.00 | 75 | 1015.0 |
| 20260505022802 | 25 | 259 | 3.2 | 6.4 | 0.00 | 0.00 | 0.00 | 75 | 1015.0 |
| 20260505022304 | 25 | 214 | 3.2 | 6.4 | 0.00 | 0.00 | 0.00 | 75 | 1015.0 |
| 20260505021801 | 25 | 207 | 3.2 | 6.4 | 0.00 | 0.00 | 0.00 | 75 | 1015.0 |
| 20260505021302 | 25 | 220 | 3.2 | 4.8 | 0.00 | 0.00 | 0.00 | 75 | 1015.0 |
| 20260505020801 | 25 | 212 | 1.6 | 3.2 | 0.00 | 0.00 | 0.00 | 75 | 1015.0 |
| 20260505020303 | 25 | 212 | 1.6 | 3.2 | 0.00 | 0.00 | 0.00 | 74 | 1015.0 |
| 20260505015802 | 25 | 198 | 1.6 | 6.4 | 0.00 | 0.00 | 0.00 | 74 | 1015.0 |
| 20260505015303 | 25 | 231 | 1.6 | 4.8 | 0.00 | 0.00 | 0.00 | 74 | 1015.0 |
| 20260505014802 | 25 | 203 | 3.2 | 6.4 | 0.00 | 0.00 | 0.00 | 73 | 1015.0 |
| 20260505014302 | 25 | 252 | 3.2 | 4.8 | 0.00 | 0.00 | 0.00 | 74 | 1015.0 |
| 20260505013802 | 25 | 230 | 3.2 | 6.4 | 0.00 | 0.00 | 0.00 | 74 | 1015.0 |
| 20260505013301 | 24 | 249 | 1.6 | 4.8 | 0.00 | 0.00 | 0.00 | 74 | 1015.0 |
| 20260505012802 | 24 | 222 | 1.6 | 3.2 | 0.00 | 0.00 | 0.00 | 74 | 1015.0 |
| 20260505012301 | 24 | 233 | 0.0 | 1.6 | 0.00 | 0.00 | 0.00 | 74 | 1015.0 |
| 20260505011805 | 24 | 0 | 0.0 | 0.0 | 0.00 | 0.00 | 0.00 | 75 | 1015.0 |
| 20260505011302 | 24 | 0 | 0.0 | 0.0 | 0.00 | 0.00 | 0.00 | 75 | 1015.0 |
| 20260505010312 | 24 | 225 | 1.6 | 3.2 | 0.00 | 0.00 | 0.00 | 75 | 1014.0 |
| 20260505005802 | 23 | 232 | 1.6 | 3.2 | 0.00 | 0.00 | 0.00 | 75 | 1014.0 |
| 20260505005303 | 23 | 0 | 0.0 | 0.0 | 0.00 | 0.00 | 0.00 | 75 | 1014.0 |
| 20260505004802 | 23 | 176 | 0.0 | 1.6 | 0.00 | 0.00 | 0.00 | 75 | 1014.0 |
| 20260505004301 | 23 | 142 | 0.0 | 1.6 | 0.00 | 0.00 | 0.00 | 75 | 1014.0 |
| 20260505003803 | 23 | 322 | 0.0 | 1.6 | 0.00 | 0.00 | 0.00 | 75 | 1014.0 |
| 20260505003303 | 24 | 89 | 0.0 | 3.2 | 0.00 | 0.00 | 0.00 | 74 | 1014.0 |
| 20260505002802 | 24 | 62 | 1.6 | 3.2 | 0.00 | 0.00 | 0.00 | 74 | 1014.0 |
| 20260505002303 | 24 | 58 | 0.0 | 3.2 | 0.00 | 0.00 | 0.00 | 74 | 1014.0 |
| 20260505001803 | 24 | 300 | 0.0 | 3.2 | 0.00 | 0.00 | 0.00 | 74 | 1014.0 |
| 20260505001303 | 24 | 76 | 1.6 | 4.8 | 0.00 | 0.00 | 0.00 | 74 | 1014.0 |
| 20260505000801 | 24 | 101 | 0.0 | 1.6 | 0.00 | 0.00 | 0.00 | 74 | 1014.0 |
| 20260505000301 | 24 | 95 | 0.0 | 3.2 | 0.00 | 0.00 | 0.00 | 74 | 1014.0 |
| 20260504235801 | 24 | 224 | 0.0 | 1.6 | 0.00 | 0.00 | 0.00 | 73 | 1014.0 |
| 20260504235302 | 24 | 73 | 1.6 | 6.4 | 0.00 | 0.00 | 0.00 | 73 | 1014.0 |
| 20260504234802 | 24 | 62 | 3.2 | 4.8 | 0.00 | 0.00 | 0.00 | 73 | 1014.0 |
| 20260504234305 | 24 | 253 | 0.0 | 1.6 | 0.00 | 0.00 | 0.00 | 73 | 1014.0 |
| 20260504233802 | 24 | 60 | 3.2 | 3.2 | 0.00 | 0.00 | 0.00 | 73 | 1014.0 |
| 20260504233302 | 24 | 65 | 3.2 | 4.8 | 0.00 | 0.00 | 0.00 | 73 | 1014.0 |
| 20260504232801 | 24 | 80 | 1.6 | 4.8 | 0.00 | 0.00 | 0.00 | 73 | 1014.0 |
| 20260504232303 | 24 | 77 | 1.6 | 4.8 | 0.00 | 0.00 | 0.00 | 73 | 1014.0 |
| 20260504231803 | 24 | 95 | 1.6 | 3.2 | 0.00 | 0.00 | 0.00 | 73 | 1014.0 |
| 20260504231305 | 24 | 71 | 1.6 | 6.4 | 0.00 | 0.00 | 0.00 | 73 | 1014.0 |
| 20260504230802 | 24 | 59 | 1.6 | 6.4 | 0.00 | 0.00 | 0.00 | 72 | 1014.0 |
| 20260504230302 | 25 | 68 | 3.2 | 6.4 | 0.00 | 0.00 | 0.00 | 71 | 1014.0 |
| 20260504225801 | 25 | 60 | 3.2 | 8.0 | 0.00 | 0.00 | 0.00 | 71 | 1014.0 |
| 20260504225304 | 25 | 68 | 0.0 | 1.6 | 0.00 | 0.00 | 0.00 | 69 | 1014.0 |
| 20260504224802 | 25 | 86 | 1.6 | 4.8 | 0.00 | 0.00 | 0.00 | 69 | 1014.0 |
| 20260504224302 | 25 | 34 | 0.0 | 3.2 | 0.00 | 0.00 | 0.00 | 69 | 1014.0 |
| 20260504223802 | 25 | 91 | 1.6 | 4.8 | 0.00 | 0.00 | 0.00 | 69 | 1014.0 |
| 20260504223302 | 25 | 232 | 0.0 | 1.6 | 0.00 | 0.00 | 0.00 | 69 | 1014.0 |
| 20260504222803 | 25 | 66 | 0.0 | 1.6 | 0.00 | 0.00 | 0.00 | 69 | 1014.0 |
| 20260504222305 | 25 | 32 | 0.0 | 3.2 | 0.00 | 0.00 | 0.00 | 69 | 1014.0 |
| 20260504221801 | 25 | 203 | 0.0 | 3.2 | 0.00 | 0.00 | 0.00 | 69 | 1014.0 |
| 20260504221303 | 25 | 30 | 0.0 | 0.0 | 0.00 | 0.00 | 0.00 | 69 | 1013.0 |
| 20260504220802 | 25 | 190 | 1.6 | 4.8 | 0.00 | 0.00 | 0.00 | 69 | 1013.0 |
| 20260504220304 | 25 | 203 | 0.0 | 1.6 | 0.00 | 0.00 | 0.00 | 70 | 1013.0 |
| 20260504215803 | 25 | 235 | 1.6 | 3.2 | 0.00 | 0.00 | 0.00 | 69 | 1013.0 |
| 20260504215311 | 25 | 228 | 1.6 | 3.2 | 0.00 | 0.00 | 0.00 | 69 | 1013.0 |
| 20260504214802 | 25 | 42 | 0.0 | 1.6 | 0.00 | 0.00 | 0.00 | 68 | 1013.0 |
| 20260504214305 | 25 | 238 | 3.2 | 6.4 | 0.00 | 0.00 | 0.00 | 68 | 1013.0 |
| 20260504213802 | 25 | 253 | 1.6 | 4.8 | 0.00 | 0.00 | 0.00 | 68 | 1013.0 |
| 20260504213304 | 25 | 192 | 1.6 | 3.2 | 0.00 | 0.00 | 0.00 | 68 | 1013.0 |
| 20260504212805 | 25 | 212 | 1.6 | 4.8 | 0.00 | 0.00 | 0.00 | 68 | 1013.0 |
| 20260504212304 | 25 | 258 | 1.6 | 3.2 | 0.00 | 0.00 | 0.00 | 68 | 1013.0 |
| 20260504211803 | 25 | 233 | 3.2 | 3.2 | 0.00 | 0.00 | 0.00 | 67 | 1014.0 |
| 20260504211304 | 25 | 239 | 3.2 | 6.4 | 0.00 | 0.00 | 0.00 | 67 | 1014.0 |
| 20260504210802 | 25 | 224 | 0.0 | 3.2 | 0.00 | 0.00 | 0.00 | 67 | 1014.0 |
| 20260504210303 | 25 | 165 | 0.0 | 1.6 | 0.00 | 0.00 | 0.00 | 67 | 1014.0 |
| 20260504205802 | 25 | 139 | 0.0 | 3.2 | 0.00 | 0.00 | 0.00 | 67 | 1013.0 |
| 20260504205305 | 25 | 235 | 3.2 | 4.8 | 0.00 | 0.00 | 0.00 | 67 | 1013.0 |
| 20260504204806 | 25 | 63 | 1.6 | 1.6 | 0.00 | 0.00 | 0.00 | 67 | 1014.0 |
| 20260504204302 | 25 | 252 | 3.2 | 6.4 | 0.00 | 0.00 | 0.00 | 67 | 1013.0 |
| 20260504203802 | 25 | 233 | 3.2 | 6.4 | 0.00 | 0.00 | 0.00 | 67 | 1013.0 |
| 20260504203303 | 25 | 45 | 0.0 | 3.2 | 0.00 | 0.00 | 0.00 | 67 | 1013.0 |
| 20260504202806 | 25 | 52 | 0.0 | 1.6 | 0.00 | 0.00 | 0.00 | 67 | 1013.0 |
| 20260504202304 | 25 | 234 | 3.2 | 4.8 | 0.00 | 0.00 | 0.00 | 67 | 1013.0 |
| 20260504201804 | 25 | 228 | 1.6 | 3.2 | 0.00 | 0.00 | 0.00 | 67 | 1013.0 |
| 20260504201303 | 25 | 191 | 0.0 | 3.2 | 0.00 | 0.00 | 0.00 | 67 | 1013.0 |
| 20260504200805 | 25 | 245 | 1.6 | 4.8 | 0.00 | 0.00 | 0.00 | 67 | 1013.0 |
| 20260504200304 | 25 | 243 | 1.6 | 3.2 | 0.00 | 0.00 | 0.00 | 67 | 1013.0 |
| 20260504195806 | 25 | 242 | 4.8 | 8.0 | 0.00 | 0.00 | 0.00 | 67 | 1013.0 |
| 20260504195304 | 25 | 222 | 1.6 | 4.8 | 0.00 | 0.00 | 0.00 | 67 | 1013.0 |
| 20260504194804 | 25 | 227 | 3.2 | 6.4 | 0.00 | 0.00 | 0.00 | 67 | 1013.0 |
| 20260504194306 | 25 | 183 | 1.6 | 3.2 | 0.00 | 0.00 | 0.00 | 67 | 1013.0 |
| 20260504193803 | 25 | 228 | 3.2 | 6.4 | 0.00 | 0.00 | 0.00 | 67 | 1013.0 |
| 20260504193302 | 25 | 227 | 1.6 | 3.2 | 0.00 | 0.00 | 0.00 | 67 | 1013.0 |
| 20260504192804 | 25 | 164 | 1.6 | 3.2 | 0.00 | 0.00 | 0.00 | 67 | 1013.0 |
| 20260504192304 | 25 | 232 | 4.8 | 9.7 | 0.00 | 0.00 | 0.00 | 67 | 1013.0 |
| 20260504191802 | 25 | 237 | 3.2 | 6.4 | 0.00 | 0.00 | 0.00 | 67 | 1013.0 |
| 20260504191303 | 26 | 203 | 3.2 | 6.4 | 0.00 | 0.00 | 0.00 | 66 | 1013.0 |
| 20260504190804 | 26 | 218 | 4.8 | 6.4 | 0.00 | 0.00 | 0.00 | 65 | 1013.0 |
| 20260504190306 | 26 | 213 | 3.2 | 6.4 | 0.00 | 0.00 | 0.00 | 65 | 1013.0 |
| 20260504185803 | 26 | 242 | 1.6 | 3.2 | 0.00 | 0.00 | 0.00 | 64 | 1013.0 |
| 20260504185304 | 26 | 238 | 3.2 | 8.0 | 0.00 | 0.00 | 0.00 | 64 | 1013.0 |
| 20260504184803 | 26 | 250 | 1.6 | 3.2 | 0.00 | 0.00 | 0.00 | 64 | 1013.0 |
| 20260504184304 | 26 | 313 | 0.0 | 3.2 | 0.00 | 0.00 | 0.00 | 64 | 1014.0 |
| 20260504183804 | 26 | 172 | 0.0 | 1.6 | 0.00 | 0.00 | 0.00 | 65 | 1014.0 |
| 20260504183304 | 26 | 230 | 4.8 | 8.0 | 0.00 | 0.00 | 0.00 | 64 | 1014.0 |
| 20260504182806 | 26 | 216 | 3.2 | 8.0 | 0.00 | 0.00 | 0.00 | 63 | 1014.0 |
| 20260504182304 | 26 | 330 | 0.0 | 3.2 | 0.00 | 0.00 | 0.00 | 64 | 1014.0 |
| 20260504181803 | 26 | 240 | 3.2 | 3.2 | 0.00 | 0.00 | 0.00 | 63 | 1014.0 |
| 20260504181306 | 26 | 249 | 3.2 | 4.8 | 0.00 | 0.00 | 0.00 | 63 | 1014.0 |
| 20260504180804 | 26 | 227 | 1.6 | 3.2 | 0.00 | 0.00 | 0.00 | 64 | 1014.0 |
| 20260504180303 | 26 | 70 | 0.0 | 3.2 | 0.00 | 0.00 | 0.00 | 64 | 1014.0 |
| 20260504175803 | 26 | 342 | 1.6 | 1.6 | 0.00 | 0.00 | 0.00 | 64 | 1014.0 |
| 20260504175305 | 26 | 219 | 0.0 | 3.2 | 0.00 | 0.00 | 0.00 | 65 | 1014.0 |
| 20260504174806 | 26 | 97 | 0.0 | 3.2 | 0.00 | 0.00 | 0.00 | 65 | 1014.0 |
| 20260504174307 | 26 | 87 | 3.2 | 6.4 | 0.00 | 0.00 | 0.00 | 65 | 1014.0 |
| 20260504173803 | 26 | 55 | 0.0 | 3.2 | 0.00 | 0.00 | 0.00 | 64 | 1014.0 |
| 20260504173304 | 26 | 355 | 1.6 | 4.8 | 0.00 | 0.00 | 0.00 | 65 | 1014.0 |
| 20260504172804 | 26 | 94 | 1.6 | 6.4 | 0.00 | 0.00 | 0.00 | 65 | 1014.0 |
| 20260504172304 | 26 | 30 | 1.6 | 4.8 | 0.00 | 0.00 | 0.00 | 65 | 1014.0 |
| 20260504171803 | 26 | 112 | 0.0 | 1.6 | 0.00 | 0.00 | 0.00 | 66 | 1014.0 |
| 20260504171304 | 26 | 76 | 3.2 | 6.4 | 0.00 | 0.00 | 0.00 | 65 | 1014.0 |
| 20260504170804 | 26 | 53 | 3.2 | 6.4 | 0.00 | 0.00 | 0.00 | 66 | 1014.0 |
| 20260504170304 | 26 | 101 | 1.6 | 6.4 | 0.00 | 0.00 | 0.00 | 66 | 1014.0 |
| 20260504160306 | 26 | 60 | 1.6 | 4.8 | 0.00 | 0.00 | 0.00 | 64 | 1014.0 |
| 20260504150804 | 26 | 328 | 3.2 | 4.8 | 0.00 | 0.00 | 0.00 | 63 | 1013.0 |
| 20260504150305 | 27 | 333 | 1.6 | 3.2 | 0.00 | 0.00 | 0.00 | 64 | 1013.0 |
| 20260504141305 | 27 | 245 | 3.2 | 4.8 | 0.00 | 0.00 | 0.00 | 64 | 1013.0 |
| 20260504140804 | 27 | 303 | 1.6 | 4.8 | 0.00 | 0.00 | 0.00 | 65 | 1013.0 |
| 20260504140302 | 27 | 297 | 0.0 | 3.2 | 0.00 | 0.00 | 0.00 | 65 | 1013.0 |
| 20260504130804 | 28 | 208 | 4.8 | 9.7 | 0.00 | 0.00 | 0.00 | 60 | 1012.0 |
| 20260504130303 | 29 | 289 | 3.2 | 6.4 | 0.00 | 0.00 | 0.00 | 58 | 1012.0 |
| 20260504120305 | 33 | 283 | 3.2 | 8.0 | 0.00 | 0.00 | 0.00 | 47 | 1010.0 |
| 20260504110304 | 33 | 6 | 3.2 | 6.4 | 0.00 | 0.00 | 0.00 | 49 | 1010.0 |
| 20260504100305 | 33 | 74 | 3.2 | 4.8 | 0.00 | 0.00 | 0.00 | 49 | 1010.0 |
| 20260504081804 | 32 | 9 | 8.0 | 14.5 | 0.00 | 0.00 | 0.00 | 53 | 1012.0 |
| 20260504081305 | 32 | 72 | 3.2 | 6.4 | 0.00 | 0.00 | 0.00 | 53 | 1012.0 |
| 20260504080810 | 32 | 192 | 3.2 | 6.4 | 0.00 | 0.00 | 0.00 | 51 | 1012.0 |